KLM590 DGAA-EHAM

Flight info

Callsign KLM590
Flight time N/A
Altitude 35000
Route ACC UB726 PAMPA DCT TATAT DCT IPUTA DCT ABALA DCT MIGNI DCT EREBO/N0480F360 UA604 TMS/N0479F370 UZ111 OPRIC/N0474F360 UZ111 ELO/N0473F380 UR978 KAMER DCT NAFOQ DCT SURJU DCT PADKO DCT MOPEM DCT SIZZA DCT ENORI DCT MEDIL DCT FERDI/N0401F240 Y18 DENUT
Aircraft B77W/H-SDE1E2E3FGHIJ2J3J4J5M1RWXY/LB1D1

Departure

Time 2026-05-04 22:21
Airport Kotoka International Airport (DGAA)

Arrival

Time N/A
Airport Amsterdam Airport Schiphol (EHAM)
Time Latitude Longitude Altitude Speed Heading
2026-05-04 22:14 5.60324 -0.17012 222 ft 2 kts 202°
2026-05-04 22:16 5.60323 -0.17012 223 ft 1 kts 202°
2026-05-04 22:17 5.60298 -0.17023 220 ft 7 kts 202°
2026-05-04 22:17 5.60237 -0.17048 221 ft 12 kts 202°
2026-05-04 22:17 5.60156 -0.17083 218 ft 14 kts 202°
2026-05-04 22:17 5.60061 -0.17122 216 ft 15 kts 202°
2026-05-04 22:18 5.59964 -0.17162 219 ft 15 kts 202°
2026-05-04 22:18 5.59867 -0.17202 221 ft 15 kts 202°
2026-05-04 22:18 5.59770 -0.17243 218 ft 15 kts 202°
2026-05-04 22:18 5.59672 -0.17282 218 ft 15 kts 202°
2026-05-04 22:19 5.59575 -0.17322 216 ft 15 kts 202°
2026-05-04 22:19 5.59475 -0.17364 213 ft 16 kts 202°
2026-05-04 22:19 5.59365 -0.17410 215 ft 18 kts 203°
2026-05-04 22:19 5.59246 -0.17432 208 ft 18 kts 166°
2026-05-04 22:20 5.59174 -0.17356 208 ft 13 kts 118°
2026-05-04 22:20 5.59164 -0.17289 211 ft 10 kts 60°
2026-05-04 22:20 5.59224 -0.17258 209 ft 10 kts 22°
2026-05-04 22:20 5.59334 -0.17212 210 ft 35 kts 21°
2026-05-04 22:21 5.59801 -0.17021 214 ft 109 kts 22°
2026-05-04 22:21 5.60705 -0.16647 228 ft 169 kts 22°
2026-05-04 22:21 5.61933 -0.16142 377 ft 201 kts 22°
2026-05-04 22:21 5.63218 -0.15628 1004 ft 200 kts 22°
2026-05-04 22:22 5.64539 -0.15124 1589 ft 206 kts 19°
2026-05-04 22:22 5.65926 -0.14692 2129 ft 212 kts 17°
2026-05-04 22:22 5.67391 -0.14277 2544 ft 227 kts 15°
2026-05-04 22:22 5.68987 -0.13828 2798 ft 252 kts 17°
2026-05-04 22:23 5.70742 -0.13300 3164 ft 270 kts 18°
2026-05-04 22:23 5.72542 -0.12743 3993 ft 270 kts 18°
2026-05-04 22:23 5.74347 -0.12203 4831 ft 271 kts 18°
2026-05-04 22:23 5.76160 -0.11664 5630 ft 273 kts 19°
2026-05-04 22:24 5.77990 -0.11119 6394 ft 275 kts 19°
2026-05-04 22:24 5.79831 -0.10569 7108 ft 277 kts 20°
2026-05-04 22:24 5.81679 -0.10017 7853 ft 277 kts 21°
2026-05-04 22:24 5.83530 -0.09462 8616 ft 278 kts 21°
2026-05-04 22:25 5.85385 -0.08906 9353 ft 279 kts 22°
2026-05-04 22:25 5.87252 -0.08346 10055 ft 281 kts 22°
2026-05-04 22:25 5.89166 -0.07768 10408 ft 298 kts 22°
2026-05-04 22:25 5.91234 -0.07140 10585 ft 322 kts 21°
2026-05-04 22:26 5.93452 -0.06467 10758 ft 345 kts 21°
2026-05-04 22:26 5.95811 -0.05756 11138 ft 360 kts 21°
2026-05-04 22:26 5.98241 -0.05030 11751 ft 368 kts 20°
2026-05-04 22:26 6.00715 -0.04292 12537 ft 373 kts 20°
2026-05-04 22:27 6.03214 -0.03545 13369 ft 377 kts 20°
2026-05-04 22:27 6.05708 -0.02798 14079 ft 382 kts 20°
2026-05-04 22:27 6.08268 -0.02030 14750 ft 387 kts 20°
2026-05-04 22:27 6.10866 -0.01250 15415 ft 392 kts 20°
2026-05-04 22:28 6.13494 -0.00462 16094 ft 396 kts 20°
2026-05-04 22:28 6.16149 0.00335 16777 ft 401 kts 20°
2026-05-04 22:28 6.18839 0.01142 17414 ft 406 kts 20°
2026-05-04 22:28 6.21563 0.01962 18060 ft 411 kts 19°
2026-05-04 22:29 6.24314 0.02788 18638 ft 415 kts 19°
2026-05-04 22:29 6.27093 0.03623 19166 ft 420 kts 19°
2026-05-04 22:29 6.29906 0.04468 19725 ft 424 kts 19°
2026-05-04 22:29 6.32741 0.05320 20261 ft 428 kts 19°
2026-05-04 22:30 6.35607 0.06182 20805 ft 432 kts 18°
2026-05-04 22:30 6.38500 0.07051 21325 ft 436 kts 18°
2026-05-04 22:30 6.40433 0.07632 21657 ft 439 kts 18°
2026-05-04 22:30 6.43375 0.08517 22155 ft 444 kts 18°
2026-05-04 22:31 6.46346 0.09411 22694 ft 447 kts 18°
2026-05-04 22:31 6.49339 0.10311 23216 ft 451 kts 18°
2026-05-04 22:31 6.52352 0.11218 23694 ft 454 kts 17°
2026-05-04 22:31 6.55391 0.12133 24100 ft 457 kts 17°
2026-05-04 22:32 6.58446 0.13052 24535 ft 460 kts 17°
2026-05-04 22:32 6.61523 0.13978 24980 ft 462 kts 17°
2026-05-04 22:32 6.64610 0.14906 25415 ft 464 kts 17°
2026-05-04 22:32 6.67717 0.15840 25800 ft 468 kts 17°
2026-05-04 22:33 6.70844 0.16779 26189 ft 471 kts 17°
2026-05-04 22:33 6.73993 0.17726 26579 ft 474 kts 17°
2026-05-04 22:33 6.77160 0.18679 26976 ft 476 kts 17°
2026-05-04 22:33 6.80334 0.19633 27370 ft 479 kts 16°
2026-05-04 22:34 6.83538 0.20597 27801 ft 480 kts 16°
2026-05-04 22:34 6.86744 0.21562 28181 ft 483 kts 16°
2026-05-04 22:34 6.89936 0.22523 28504 ft 487 kts 16°
2026-05-04 22:34 6.93233 0.23515 28869 ft 489 kts 16°
2026-05-04 22:35 6.96460 0.24487 29227 ft 492 kts 16°
2026-05-04 22:35 6.99744 0.25476 29539 ft 495 kts 15°
2026-05-04 22:35 7.03052 0.26473 29858 ft 497 kts 16°
2026-05-04 22:35 7.06370 0.27473 30155 ft 499 kts 15°
2026-05-04 22:36 7.09702 0.28476 30427 ft 501 kts 16°
2026-05-04 22:36 7.13045 0.29483 30709 ft 502 kts 16°
2026-05-04 22:36 7.16388 0.30491 31066 ft 501 kts 16°
2026-05-04 22:36 7.19722 0.31496 31457 ft 499 kts 16°
2026-05-04 22:37 7.23049 0.32500 31842 ft 498 kts 16°
2026-05-04 22:37 7.26370 0.33501 32199 ft 498 kts 16°
2026-05-04 22:37 7.29688 0.34502 32562 ft 497 kts 16°
2026-05-04 22:37 7.33002 0.35501 32927 ft 497 kts 16°
2026-05-04 22:38 7.36309 0.36499 33307 ft 496 kts 16°
2026-05-04 22:38 7.39607 0.37494 33674 ft 495 kts 16°
2026-05-04 22:38 7.42904 0.38489 34033 ft 494 kts 16°
2026-05-04 22:38 7.46189 0.39480 34353 ft 493 kts 16°
2026-05-04 22:39 7.49466 0.40469 34671 ft 492 kts 16°
2026-05-04 22:39 7.52749 0.41461 34844 ft 494 kts 16°
2026-05-04 22:39 7.56055 0.42459 34879 ft 497 kts 16°
2026-05-04 22:40 7.62608 0.44438 34900 ft 493 kts 16°
2026-05-04 22:40 7.69156 0.46416 34921 ft 490 kts 16°
2026-05-04 22:41 7.75668 0.48385 34920 ft 488 kts 16°
2026-05-04 22:41 7.82183 0.50354 34926 ft 488 kts 16°
2026-05-04 22:42 7.88694 0.52324 34926 ft 489 kts 16°
2026-05-04 22:42 7.95218 0.54298 34928 ft 490 kts 16°
2026-05-04 22:43 8.01693 0.56458 34932 ft 491 kts 22°
2026-05-04 22:43 8.07768 0.59629 34943 ft 492 kts 29°
2026-05-04 22:44 8.13708 0.63069 34941 ft 493 kts 30°
2026-05-04 22:44 8.19670 0.66507 34936 ft 494 kts 29°
2026-05-04 22:45 8.25650 0.69920 34933 ft 494 kts 29°
2026-05-04 22:45 8.34623 0.75020 34937 ft 493 kts 29°
2026-05-04 22:46 8.40598 0.78417 34936 ft 493 kts 29°
2026-05-04 22:46 8.46564 0.81812 34937 ft 492 kts 29°
2026-05-04 22:47 8.52530 0.85208 34938 ft 492 kts 29°
2026-05-04 22:47 8.58489 0.88602 34936 ft 491 kts 29°
2026-05-04 22:48 8.64441 0.91994 34937 ft 491 kts 29°
2026-05-04 22:48 8.70344 0.95358 34937 ft 490 kts 29°
2026-05-04 22:49 8.76277 0.98741 34938 ft 489 kts 29°
2026-05-04 22:49 8.82204 1.02121 34937 ft 489 kts 29°
2026-05-04 22:50 8.88119 1.05496 34920 ft 488 kts 29°
2026-05-04 22:50 8.94034 1.08872 34943 ft 487 kts 29°
2026-05-04 22:51 8.99941 1.12245 34939 ft 487 kts 29°
2026-05-04 22:51 9.05841 1.15615 34942 ft 487 kts 29°
2026-05-04 22:52 9.11742 1.18988 34947 ft 487 kts 29°
2026-05-04 22:52 9.17633 1.22356 34948 ft 486 kts 29°
2026-05-04 22:53 9.23525 1.25725 34945 ft 486 kts 29°
2026-05-04 22:53 9.29377 1.29073 34952 ft 486 kts 29°
2026-05-04 22:54 9.35305 1.32466 34954 ft 486 kts 29°
2026-05-04 22:54 9.41194 1.35837 34939 ft 486 kts 30°
2026-05-04 22:55 9.47048 1.39190 34953 ft 487 kts 30°
2026-05-04 22:55 9.52943 1.42568 34953 ft 487 kts 30°
2026-05-04 22:56 9.58837 1.45947 34940 ft 487 kts 30°
2026-05-04 22:56 9.64730 1.49326 34952 ft 487 kts 30°
2026-05-04 22:57 9.70624 1.52707 34954 ft 487 kts 30°
2026-05-04 22:57 9.76516 1.56090 34951 ft 486 kts 30°
2026-05-04 22:58 9.82402 1.59469 34942 ft 486 kts 30°
2026-05-04 22:58 9.88291 1.62852 34942 ft 486 kts 29°
2026-05-04 22:59 9.94177 1.66234 34944 ft 486 kts 29°
2026-05-04 22:59 10.00066 1.69619 34955 ft 487 kts 29°
2026-05-04 23:00 10.05956 1.73007 34958 ft 487 kts 29°
2026-05-04 23:00 10.11851 1.76399 34947 ft 487 kts 29°
2026-05-04 23:01 10.17752 1.79795 34948 ft 488 kts 29°
2026-05-04 23:01 10.23662 1.83199 34946 ft 489 kts 29°
2026-05-04 23:02 10.29544 1.86588 34956 ft 489 kts 29°
2026-05-04 23:02 10.35464 1.90000 34951 ft 489 kts 29°
2026-05-04 23:03 10.41391 1.93418 34937 ft 490 kts 28°
2026-05-04 23:03 10.47322 1.96839 34940 ft 490 kts 28°
2026-05-04 23:04 10.53256 2.00264 34938 ft 490 kts 28°
2026-05-04 23:04 10.59188 2.03689 34931 ft 491 kts 28°
2026-05-04 23:05 10.65120 2.07116 34933 ft 490 kts 28°
2026-05-04 23:05 10.71050 2.10543 34932 ft 490 kts 28°
2026-05-04 23:06 10.76982 2.13973 34935 ft 490 kts 28°
2026-05-04 23:06 10.82908 2.17401 34931 ft 490 kts 28°
2026-05-04 23:07 10.88838 2.20833 34931 ft 490 kts 28°
2026-05-04 23:07 10.94762 2.24264 34927 ft 490 kts 28°
2026-05-04 23:08 11.00709 2.27656 34924 ft 489 kts 25°
2026-05-04 23:08 11.06894 2.30531 34917 ft 489 kts 22°
2026-05-04 23:09 11.13114 2.33311 34914 ft 489 kts 22°
2026-05-04 23:09 11.19337 2.36116 34924 ft 489 kts 23°
2026-05-04 23:10 11.25505 2.38923 34915 ft 489 kts 23°
2026-05-04 23:10 11.31717 2.41762 34912 ft 489 kts 23°
2026-05-04 23:11 11.37927 2.44602 34910 ft 489 kts 23°
2026-05-04 23:11 11.44141 2.47443 34907 ft 489 kts 23°
2026-05-04 23:12 11.50345 2.50280 34910 ft 489 kts 23°
2026-05-04 23:12 11.56560 2.53124 34903 ft 489 kts 23°
2026-05-04 23:13 11.62764 2.55964 34899 ft 488 kts 23°
2026-05-04 23:13 11.68961 2.58802 34900 ft 488 kts 23°
2026-05-04 23:14 11.75152 2.61639 34899 ft 488 kts 23°
2026-05-04 23:14 11.81337 2.64474 34894 ft 488 kts 23°
2026-05-04 23:15 11.87529 2.67314 34897 ft 488 kts 23°
2026-05-04 23:15 11.93720 2.70155 34896 ft 488 kts 23°
2026-05-04 23:16 11.99920 2.73002 34884 ft 489 kts 23°
2026-05-04 23:16 12.06124 2.75852 34883 ft 490 kts 23°
2026-05-04 23:17 12.12343 2.78710 34886 ft 490 kts 23°
2026-05-04 23:17 12.18576 2.81576 34878 ft 491 kts 23°
2026-05-04 23:18 12.24813 2.84445 34879 ft 492 kts 23°
2026-05-04 23:18 12.31066 2.87323 34875 ft 493 kts 23°
2026-05-04 23:19 12.36262 2.89717 34877 ft 494 kts 23°
2026-05-04 23:19 12.43600 2.93098 34874 ft 495 kts 22°
2026-05-04 23:20 12.49885 2.95995 34871 ft 496 kts 22°
2026-05-04 23:20 12.55115 2.98408 34872 ft 497 kts 22°
2026-05-04 23:21 12.61423 3.01319 34871 ft 497 kts 22°
2026-05-04 23:21 12.67740 3.04236 34863 ft 498 kts 22°
2026-05-04 23:22 12.74050 3.07151 34866 ft 498 kts 22°
2026-05-04 23:22 12.80367 3.10072 34863 ft 498 kts 22°
2026-05-04 23:23 12.86681 3.12992 34863 ft 498 kts 22°
2026-05-04 23:23 12.92990 3.15912 34862 ft 497 kts 22°
2026-05-04 23:24 12.99299 3.18833 34861 ft 497 kts 22°
2026-05-04 23:24 13.05607 3.21755 34859 ft 497 kts 22°
2026-05-04 23:25 13.11912 3.24678 34856 ft 497 kts 21°
2026-05-04 23:25 13.18210 3.27599 34853 ft 497 kts 21°
2026-05-04 23:26 13.24507 3.30522 34853 ft 497 kts 21°
2026-05-04 23:26 13.30762 3.33427 34847 ft 496 kts 21°
2026-05-04 23:27 13.37051 3.36349 34848 ft 496 kts 21°
2026-05-04 23:27 13.43332 3.39269 34850 ft 495 kts 21°
2026-05-04 23:28 13.49611 3.42190 34846 ft 495 kts 21°
2026-05-04 23:28 13.55882 3.45107 34845 ft 495 kts 21°
2026-05-04 23:29 13.62187 3.47958 34847 ft 495 kts 20°
2026-05-04 23:29 13.68502 3.50774 34846 ft 495 kts 20°
2026-05-04 23:30 13.74821 3.53601 34844 ft 495 kts 20°
2026-05-04 23:30 13.81140 3.56440 34841 ft 495 kts 20°
2026-05-04 23:31 13.87451 3.59281 34840 ft 496 kts 20°
2026-05-04 23:31 13.93774 3.62130 34838 ft 496 kts 20°
2026-05-04 23:32 14.00095 3.64978 34836 ft 496 kts 20°
2026-05-04 23:32 14.06426 3.67833 34834 ft 496 kts 20°
2026-05-04 23:33 14.12748 3.70685 34831 ft 496 kts 20°
2026-05-04 23:33 14.19079 3.73543 34828 ft 497 kts 20°
2026-05-04 23:34 14.25407 3.76401 34826 ft 497 kts 20°
2026-05-04 23:34 14.31740 3.79264 34826 ft 497 kts 20°
2026-05-04 23:35 14.38071 3.82127 34828 ft 497 kts 20°
2026-05-04 23:35 14.44406 3.84994 34822 ft 497 kts 20°
2026-05-04 23:36 14.50739 3.87862 34819 ft 497 kts 20°
2026-05-04 23:36 14.57073 3.90732 34819 ft 497 kts 20°
2026-05-04 23:37 14.63402 3.93602 34816 ft 497 kts 20°
2026-05-04 23:37 14.69740 3.96477 34818 ft 497 kts 20°
2026-05-04 23:38 14.76073 3.99352 34815 ft 497 kts 20°
2026-05-04 23:38 14.82363 4.02210 34814 ft 497 kts 20°
2026-05-04 23:39 14.88736 4.05107 34813 ft 497 kts 20°
2026-05-04 23:39 14.95020 4.07965 34813 ft 497 kts 20°
2026-05-04 23:40 15.01345 4.10844 34811 ft 497 kts 20°
2026-05-04 23:40 15.07668 4.13723 34809 ft 496 kts 20°
2026-05-04 23:41 15.13991 4.16605 34812 ft 496 kts 20°
2026-05-04 23:41 15.20304 4.19484 34810 ft 496 kts 20°
2026-05-04 23:42 15.26621 4.22367 34812 ft 496 kts 20°
2026-05-04 23:42 15.32929 4.25247 34816 ft 495 kts 20°
2026-05-04 23:43 15.39235 4.28129 34814 ft 495 kts 20°
2026-05-04 23:43 15.45542 4.31013 34813 ft 495 kts 20°
2026-05-04 23:44 15.51845 4.33897 34818 ft 495 kts 20°
2026-05-04 23:44 15.58150 4.36784 34811 ft 495 kts 20°
2026-05-04 23:45 15.64452 4.39671 34812 ft 495 kts 20°
2026-05-04 23:45 15.70756 4.42561 34809 ft 495 kts 20°
2026-05-04 23:46 15.77056 4.45452 34808 ft 495 kts 20°
2026-05-04 23:46 15.83349 4.48342 34812 ft 495 kts 19°
2026-05-04 23:47 15.89645 4.51235 34813 ft 494 kts 19°
2026-05-04 23:47 15.95931 4.54125 34811 ft 494 kts 19°
2026-05-04 23:48 16.02211 4.57015 34813 ft 493 kts 19°
2026-05-04 23:48 16.08309 4.60224 34812 ft 497 kts 26°
2026-05-04 23:49 16.14242 4.63925 34810 ft 497 kts 26°
2026-05-04 23:49 16.20156 4.67650 34806 ft 497 kts 26°
2026-05-04 23:50 16.26120 4.71371 34808 ft 496 kts 26°
2026-05-04 23:50 16.32044 4.75045 34808 ft 496 kts 26°
2026-05-04 23:51 16.37932 4.78694 34807 ft 495 kts 25°
2026-05-04 23:51 16.43852 4.82367 34807 ft 495 kts 25°
2026-05-04 23:52 16.49763 4.86039 34807 ft 495 kts 25°
2026-05-04 23:52 16.55671 4.89712 34809 ft 494 kts 25°
2026-05-04 23:53 16.61575 4.93385 34810 ft 494 kts 25°
2026-05-04 23:53 16.67469 4.97055 34809 ft 493 kts 25°
2026-05-04 23:54 16.73358 5.00724 34803 ft 493 kts 25°
2026-05-04 23:54 16.79241 5.04392 34806 ft 492 kts 25°
2026-05-04 23:55 16.85116 5.08058 34802 ft 492 kts 25°
2026-05-04 23:56 16.93916 5.13553 34806 ft 491 kts 25°
2026-05-04 23:56 16.99774 5.17215 34804 ft 491 kts 25°
2026-05-04 23:57 17.05634 5.20881 34805 ft 491 kts 25°
2026-05-04 23:57 17.11490 5.24547 34808 ft 491 kts 25°
2026-05-04 23:58 17.17352 5.28219 34810 ft 491 kts 25°
2026-05-04 23:58 17.23214 5.31895 34804 ft 491 kts 25°
2026-05-04 23:59 17.29079 5.35574 34807 ft 492 kts 25°
2026-05-04 23:59 17.34948 5.39260 34794 ft 492 kts 25°
2026-05-05 00:00 17.40815 5.42947 34812 ft 492 kts 25°
2026-05-05 00:00 17.46685 5.46638 34816 ft 492 kts 25°
2026-05-05 00:01 17.52552 5.50331 34799 ft 492 kts 25°
2026-05-05 00:01 17.58418 5.54025 34802 ft 492 kts 25°
2026-05-05 00:02 17.64286 5.57724 34797 ft 492 kts 25°
2026-05-05 00:02 17.70154 5.61426 34798 ft 492 kts 25°
2026-05-05 00:03 17.76015 5.65127 34804 ft 492 kts 25°
2026-05-05 00:03 17.81908 5.68764 34808 ft 489 kts 22°
2026-05-05 00:04 17.88119 5.71494 34812 ft 482 kts 14°
2026-05-05 00:04 17.94428 5.73896 34806 ft 482 kts 14°
2026-05-05 00:05 18.00699 5.76299 34803 ft 483 kts 14°
2026-05-05 00:05 18.07045 5.78770 34800 ft 483 kts 15°
2026-05-05 00:06 18.12281 5.80822 34802 ft 483 kts 15°
2026-05-05 00:06 18.18584 5.83297 34800 ft 483 kts 15°
2026-05-05 00:07 18.24883 5.85770 34801 ft 483 kts 15°
2026-05-05 00:07 18.31179 5.88244 34801 ft 483 kts 15°
2026-05-05 00:08 18.37474 5.90718 34801 ft 482 kts 15°
2026-05-05 00:08 18.43719 5.93175 34804 ft 482 kts 15°
2026-05-05 00:09 18.50003 5.95648 34800 ft 482 kts 15°
2026-05-05 00:09 18.56284 5.98122 34801 ft 482 kts 15°
2026-05-05 00:10 18.62565 6.00599 34805 ft 482 kts 15°
2026-05-05 00:10 18.68852 6.03079 34804 ft 482 kts 15°
2026-05-05 00:11 18.75141 6.05563 34803 ft 483 kts 15°
2026-05-05 00:11 18.81434 6.08050 34803 ft 483 kts 15°
2026-05-05 00:12 18.87730 6.10541 34800 ft 483 kts 15°
2026-05-05 00:12 18.94026 6.13033 34800 ft 483 kts 15°
2026-05-05 00:13 19.00326 6.15529 34807 ft 483 kts 15°
2026-05-05 00:13 19.06622 6.18025 34801 ft 484 kts 15°
2026-05-05 00:14 19.12924 6.20526 34807 ft 484 kts 15°
2026-05-05 00:14 19.19222 6.23027 34811 ft 484 kts 15°
2026-05-05 00:15 19.25523 6.25532 34813 ft 484 kts 15°
2026-05-05 00:15 19.31825 6.28039 34808 ft 484 kts 15°
2026-05-05 00:16 19.38126 6.30548 34810 ft 484 kts 15°
2026-05-05 00:16 19.44380 6.33040 34816 ft 484 kts 15°
2026-05-05 00:17 19.50677 6.35551 34812 ft 483 kts 15°
2026-05-05 00:17 19.56969 6.38062 34817 ft 483 kts 15°
2026-05-05 00:18 19.63260 6.40575 34819 ft 483 kts 15°
2026-05-05 00:18 19.69557 6.43093 34811 ft 483 kts 15°
2026-05-05 00:19 19.75844 6.45609 34822 ft 483 kts 15°
2026-05-05 00:19 19.82137 6.48129 34814 ft 483 kts 15°
2026-05-05 00:20 19.88427 6.50650 34816 ft 483 kts 15°
2026-05-05 00:20 19.94717 6.53174 34812 ft 483 kts 15°
2026-05-05 00:21 20.01007 6.55700 34832 ft 483 kts 15°
2026-05-05 00:21 20.07299 6.58204 34815 ft 479 kts 12°
2026-05-05 00:21 20.10518 6.58884 34819 ft 467 kts 358°
2026-05-05 00:22 20.13736 6.58776 34824 ft 460 kts 347°
2026-05-05 00:22 20.16821 6.58015 34819 ft 451 kts 335°
2026-05-05 00:22 20.19723 6.56780 34847 ft 449 kts 334°
2026-05-05 00:23 20.25530 6.54248 34837 ft 453 kts 334°
2026-05-05 00:23 20.31387 6.51730 34830 ft 455 kts 334°
2026-05-05 00:24 20.37283 6.49231 34830 ft 457 kts 334°
2026-05-05 00:24 20.43163 6.46752 34827 ft 457 kts 334°
2026-05-05 00:25 20.49080 6.44257 34831 ft 457 kts 334°
2026-05-05 00:25 20.54986 6.41763 34833 ft 456 kts 334°
2026-05-05 00:26 20.60922 6.39253 34830 ft 455 kts 334°
2026-05-05 00:26 20.66806 6.36763 34841 ft 454 kts 334°
2026-05-05 00:27 20.72637 6.34293 34840 ft 453 kts 334°
2026-05-05 00:27 20.78494 6.31809 34842 ft 452 kts 334°
2026-05-05 00:28 20.84340 6.29329 34847 ft 452 kts 334°
2026-05-05 00:28 20.90179 6.26849 34848 ft 451 kts 334°
2026-05-05 00:29 20.96016 6.24368 34852 ft 451 kts 334°
2026-05-05 00:29 21.01845 6.21888 34851 ft 451 kts 334°
2026-05-05 00:30 21.07681 6.19404 34856 ft 451 kts 334°
2026-05-05 00:30 21.13509 6.16920 34861 ft 451 kts 334°
2026-05-05 00:31 21.19346 6.14431 34860 ft 451 kts 334°
2026-05-05 00:31 21.25181 6.11940 34866 ft 452 kts 334°
2026-05-05 00:32 21.31022 6.09445 34861 ft 452 kts 333°
2026-05-05 00:32 21.36863 6.06947 34867 ft 452 kts 333°
2026-05-05 00:33 21.42707 6.04447 34866 ft 452 kts 333°
2026-05-05 00:33 21.48547 6.01945 34867 ft 452 kts 333°
2026-05-05 00:34 21.54389 5.99441 34867 ft 452 kts 333°
2026-05-05 00:34 21.60183 5.96955 34874 ft 451 kts 333°
2026-05-05 00:35 21.66018 5.94450 34876 ft 451 kts 333°
2026-05-05 00:35 21.71844 5.91946 34879 ft 451 kts 333°
2026-05-05 00:36 21.77667 5.89441 34883 ft 451 kts 333°
2026-05-05 00:36 21.83489 5.86934 34881 ft 451 kts 333°
2026-05-05 00:37 21.89307 5.84427 34884 ft 450 kts 333°
2026-05-05 00:37 21.95121 5.81919 34888 ft 450 kts 333°
2026-05-05 00:38 22.00926 5.79413 34893 ft 449 kts 333°
2026-05-05 00:38 22.06726 5.76907 34895 ft 449 kts 333°
2026-05-05 00:39 22.12521 5.74401 34901 ft 448 kts 333°
2026-05-05 00:39 22.18304 5.71898 34904 ft 448 kts 333°
2026-05-05 00:40 22.24089 5.69392 34910 ft 448 kts 333°
2026-05-05 00:40 22.29865 5.66887 34917 ft 447 kts 333°
2026-05-05 00:41 22.35639 5.64381 34919 ft 447 kts 333°
2026-05-05 00:41 22.41407 5.61875 34920 ft 447 kts 333°
2026-05-05 00:42 22.47169 5.59371 34934 ft 446 kts 333°
2026-05-05 00:42 22.52891 5.56880 34981 ft 446 kts 333°
2026-05-05 00:43 22.58646 5.54373 35035 ft 446 kts 333°
2026-05-05 00:43 22.64404 5.51862 35090 ft 446 kts 333°
2026-05-05 00:44 22.70161 5.49350 35137 ft 446 kts 333°
2026-05-05 00:44 22.75915 5.46843 35160 ft 446 kts 334°
2026-05-05 00:45 22.82039 5.45364 35166 ft 458 kts 348°
2026-05-05 00:45 22.88472 5.45413 35167 ft 468 kts 359°
2026-05-05 00:46 22.94957 5.46192 35118 ft 469 kts 360°
2026-05-05 00:46 23.01434 5.47008 35104 ft 468 kts 359°
2026-05-05 00:47 23.07906 5.47778 35055 ft 468 kts 359°
2026-05-05 00:47 23.14385 5.48519 35012 ft 468 kts 359°
2026-05-05 00:48 23.20858 5.49252 35007 ft 468 kts 359°
2026-05-05 00:48 23.27343 5.49991 35003 ft 468 kts 359°
2026-05-05 00:49 23.33807 5.50730 35009 ft 467 kts 359°
2026-05-05 00:49 23.40278 5.51471 35006 ft 467 kts 359°
2026-05-05 00:50 23.46730 5.52208 35004 ft 467 kts 359°
2026-05-05 00:50 23.53191 5.52950 34999 ft 466 kts 359°
2026-05-05 00:51 23.59636 5.53689 34993 ft 465 kts 359°
2026-05-05 00:51 23.66069 5.54426 34980 ft 465 kts 359°
2026-05-05 00:52 23.72504 5.55166 34981 ft 465 kts 359°
2026-05-05 00:52 23.78944 5.55906 34976 ft 465 kts 359°
2026-05-05 00:53 23.85340 5.56642 34970 ft 465 kts 359°
2026-05-05 00:53 23.91778 5.57384 34969 ft 465 kts 359°
2026-05-05 00:54 23.98263 5.58132 34963 ft 466 kts 359°
2026-05-05 00:54 24.03614 5.58750 34963 ft 465 kts 358°
2026-05-05 00:55 24.10053 5.59494 34964 ft 465 kts 358°
2026-05-05 00:55 24.16488 5.60239 34965 ft 466 kts 358°
2026-05-05 00:56 24.22938 5.60985 34972 ft 466 kts 358°
2026-05-05 00:56 24.29383 5.61735 34957 ft 466 kts 358°
2026-05-05 00:57 24.35819 5.62480 34955 ft 464 kts 358°
2026-05-05 00:57 24.42240 5.63226 34964 ft 465 kts 358°
2026-05-05 00:58 24.48643 5.63969 34961 ft 466 kts 358°
2026-05-05 00:58 24.55093 5.64721 34960 ft 466 kts 358°
2026-05-05 00:59 24.61545 5.65473 34957 ft 466 kts 358°
2026-05-05 00:59 24.67991 5.66224 34965 ft 466 kts 358°
2026-05-05 01:00 24.74438 5.66975 34949 ft 465 kts 358°
2026-05-05 01:00 24.80876 5.67730 34946 ft 465 kts 358°
2026-05-05 01:01 24.87321 5.68484 34942 ft 466 kts 358°
2026-05-05 01:01 24.93771 5.69239 34940 ft 466 kts 358°
2026-05-05 01:02 25.00230 5.69996 34937 ft 467 kts 358°
2026-05-05 01:02 25.06690 5.70754 34936 ft 467 kts 358°
2026-05-05 01:03 25.13150 5.71513 34935 ft 467 kts 358°
2026-05-05 01:03 25.19605 5.72272 34933 ft 467 kts 358°
2026-05-05 01:04 25.26066 5.73034 34939 ft 467 kts 358°
2026-05-05 01:04 25.35740 5.74175 34931 ft 466 kts 358°
2026-05-05 01:05 25.42181 5.74933 34948 ft 466 kts 358°
2026-05-05 01:05 25.48611 5.75696 34941 ft 463 kts 358°
2026-05-05 01:06 25.55021 5.76457 34935 ft 462 kts 358°
2026-05-05 01:06 25.61409 5.77212 34935 ft 462 kts 358°
2026-05-05 01:07 25.67760 5.77963 34931 ft 462 kts 358°
2026-05-05 01:07 25.74160 5.78723 34936 ft 463 kts 358°
2026-05-05 01:08 25.80569 5.79484 34935 ft 463 kts 358°
2026-05-05 01:08 25.86984 5.80248 34933 ft 464 kts 357°
2026-05-05 01:09 25.93404 5.81013 34933 ft 464 kts 357°
2026-05-05 01:09 25.99821 5.81778 34934 ft 464 kts 357°
2026-05-05 01:10 26.06239 5.82542 34941 ft 463 kts 357°
2026-05-05 01:10 26.12645 5.83305 34943 ft 463 kts 357°
2026-05-05 01:11 26.19047 5.84067 34932 ft 463 kts 357°
2026-05-05 01:11 26.25442 5.84831 34942 ft 462 kts 357°
2026-05-05 01:12 26.31829 5.85592 34944 ft 461 kts 357°
2026-05-05 01:12 26.38213 5.86357 34933 ft 461 kts 357°
2026-05-05 01:13 26.44584 5.87121 34939 ft 460 kts 357°
2026-05-05 01:13 26.50951 5.87883 34933 ft 460 kts 357°
2026-05-05 01:14 26.57315 5.88645 34929 ft 459 kts 357°
2026-05-05 01:14 26.63670 5.89410 34926 ft 459 kts 357°
2026-05-05 01:15 26.70025 5.90174 34929 ft 459 kts 357°
2026-05-05 01:15 26.76387 5.90939 34918 ft 460 kts 357°
2026-05-05 01:16 26.82752 5.91704 34918 ft 460 kts 357°
2026-05-05 01:16 26.89122 5.92475 34912 ft 461 kts 357°
2026-05-05 01:17 26.95507 5.93247 34908 ft 462 kts 357°
2026-05-05 01:17 27.01906 5.94021 34898 ft 463 kts 357°
2026-05-05 01:18 27.08316 5.94799 34901 ft 464 kts 357°
2026-05-05 01:18 27.14738 5.95576 34898 ft 464 kts 357°
2026-05-05 01:19 27.21168 5.96355 34894 ft 465 kts 357°
2026-05-05 01:19 27.27611 5.97138 34895 ft 466 kts 358°
2026-05-05 01:20 27.34057 5.97923 34887 ft 466 kts 358°
2026-05-05 01:20 27.40504 5.98709 34901 ft 466 kts 358°
2026-05-05 01:21 27.46963 5.99495 34899 ft 467 kts 358°
2026-05-05 01:21 27.53388 6.00280 34894 ft 467 kts 358°
2026-05-05 01:22 27.59850 6.01071 34881 ft 467 kts 358°
2026-05-05 01:22 27.66312 6.01863 34894 ft 467 kts 358°
2026-05-05 01:23 27.72777 6.02654 34888 ft 467 kts 358°
2026-05-05 01:23 27.79235 6.03446 34889 ft 467 kts 358°
2026-05-05 01:24 27.85696 6.04240 34888 ft 467 kts 358°
2026-05-05 01:24 27.92151 6.05034 34898 ft 467 kts 358°
2026-05-05 01:25 27.98607 6.05828 34889 ft 466 kts 358°
2026-05-05 01:25 28.05059 6.06624 34895 ft 466 kts 358°
2026-05-05 01:26 28.11505 6.07420 34889 ft 466 kts 358°
2026-05-05 01:26 28.17949 6.08216 34890 ft 466 kts 358°
2026-05-05 01:27 28.24392 6.09013 34892 ft 465 kts 358°
2026-05-05 01:27 28.30826 6.09810 34896 ft 465 kts 358°
2026-05-05 01:28 28.37260 6.10607 34896 ft 465 kts 358°
2026-05-05 01:28 28.43698 6.11407 34895 ft 465 kts 358°
2026-05-05 01:29 28.50134 6.12207 34895 ft 465 kts 358°
2026-05-05 01:29 28.56560 6.13007 34897 ft 465 kts 358°
2026-05-05 01:30 28.62990 6.13810 34894 ft 465 kts 358°
2026-05-05 01:30 28.69410 6.14617 34899 ft 464 kts 358°
2026-05-05 01:31 28.75829 6.15420 34899 ft 464 kts 358°
2026-05-05 01:31 28.82213 6.16220 34899 ft 464 kts 358°
2026-05-05 01:32 28.88678 6.17034 34898 ft 465 kts 358°
2026-05-05 01:32 28.95066 6.17838 34902 ft 465 kts 358°
2026-05-05 01:33 29.01496 6.18648 34900 ft 465 kts 358°
2026-05-05 01:33 29.07935 6.19461 34897 ft 466 kts 358°
2026-05-05 01:34 29.14381 6.20276 34910 ft 466 kts 358°
2026-05-05 01:34 29.20833 6.21091 34898 ft 467 kts 358°
2026-05-05 01:35 29.27287 6.21910 34900 ft 467 kts 358°
2026-05-05 01:35 29.33746 6.22729 34902 ft 467 kts 358°
2026-05-05 01:36 29.40208 6.23549 34905 ft 467 kts 358°
2026-05-05 01:36 29.46660 6.24370 34903 ft 467 kts 358°
2026-05-05 01:37 29.53121 6.25193 34904 ft 467 kts 358°
2026-05-05 01:37 29.59531 6.26010 34905 ft 467 kts 358°
2026-05-05 01:38 29.65990 6.26835 34904 ft 467 kts 358°
2026-05-05 01:38 29.72444 6.27660 34908 ft 467 kts 358°
2026-05-05 01:39 29.78902 6.28486 34911 ft 467 kts 358°
2026-05-05 01:39 29.85365 6.29314 34901 ft 467 kts 358°
2026-05-05 01:40 29.91821 6.30143 34918 ft 467 kts 358°
2026-05-05 01:40 29.98282 6.30973 34903 ft 467 kts 358°
2026-05-05 01:41 30.04734 6.31803 34908 ft 467 kts 358°
2026-05-05 01:41 30.11196 6.32636 34908 ft 467 kts 358°
2026-05-05 01:42 30.16565 6.33328 34906 ft 467 kts 358°
2026-05-05 01:42 30.23022 6.34162 34911 ft 467 kts 358°
2026-05-05 01:43 30.29475 6.34996 34906 ft 467 kts 358°
2026-05-05 01:43 30.35929 6.35832 34907 ft 467 kts 358°
2026-05-05 01:44 30.42385 6.36669 34912 ft 467 kts 358°
2026-05-05 01:44 30.48841 6.37507 34913 ft 467 kts 358°
2026-05-05 01:45 30.55306 6.38348 34913 ft 467 kts 358°
2026-05-05 01:45 30.61768 6.39189 34915 ft 468 kts 358°
2026-05-05 01:46 30.68237 6.40032 34914 ft 468 kts 358°
2026-05-05 01:46 30.74709 6.40877 34910 ft 468 kts 358°
2026-05-05 01:47 30.81186 6.41724 34916 ft 469 kts 358°
2026-05-05 01:47 30.87670 6.42573 34916 ft 469 kts 358°
2026-05-05 01:48 30.94158 6.43423 34910 ft 469 kts 358°
2026-05-05 01:48 31.00607 6.44269 34913 ft 470 kts 358°
2026-05-05 01:49 31.07103 6.45124 34918 ft 470 kts 358°
2026-05-05 01:49 31.13645 6.45986 34921 ft 470 kts 358°
2026-05-05 01:50 31.20157 6.46844 34920 ft 471 kts 358°
2026-05-05 01:50 31.26631 6.47699 34920 ft 471 kts 358°
2026-05-05 01:51 31.33192 6.48567 34920 ft 472 kts 358°
2026-05-05 01:51 31.39714 6.49431 34923 ft 472 kts 358°
2026-05-05 01:52 31.46240 6.50297 34922 ft 472 kts 358°
2026-05-05 01:52 31.52772 6.51164 34927 ft 472 kts 358°
2026-05-05 01:53 31.59309 6.52034 34930 ft 473 kts 358°
2026-05-05 01:53 31.65803 6.52899 34931 ft 473 kts 358°
2026-05-05 01:54 31.72351 6.53772 34927 ft 474 kts 359°
2026-05-05 01:54 31.78901 6.54647 34932 ft 474 kts 359°
2026-05-05 01:55 31.85467 6.55525 34932 ft 475 kts 359°
2026-05-05 01:55 31.92041 6.56405 34931 ft 476 kts 359°
2026-05-05 01:56 31.98612 6.57287 34931 ft 476 kts 359°
2026-05-05 01:56 32.05201 6.58172 34939 ft 476 kts 359°
2026-05-05 01:57 32.11793 6.59059 34934 ft 477 kts 359°
2026-05-05 01:57 32.18385 6.59948 34935 ft 477 kts 359°
2026-05-05 01:58 32.24979 6.60837 34942 ft 477 kts 359°
2026-05-05 01:58 32.31576 6.61728 34945 ft 477 kts 359°
2026-05-05 01:59 32.38172 6.62621 34938 ft 477 kts 359°
2026-05-05 01:59 32.44766 6.63516 34943 ft 477 kts 359°
2026-05-05 02:00 32.51369 6.64411 34941 ft 478 kts 359°
2026-05-05 02:00 32.57973 6.65308 34947 ft 478 kts 359°
2026-05-05 02:01 32.64588 6.66209 34953 ft 479 kts 360°
2026-05-05 02:01 32.71168 6.67106 34952 ft 479 kts 360°
2026-05-05 02:02 32.77793 6.68011 34948 ft 480 kts 360°
2026-05-05 02:02 32.84424 6.68918 34951 ft 480 kts
2026-05-05 02:03 32.91056 6.69826 34956 ft 480 kts
2026-05-05 02:03 32.97739 6.70743 34957 ft 480 kts
2026-05-05 02:04 33.04334 6.71648 34956 ft 480 kts
2026-05-05 02:04 33.10976 6.72562 34953 ft 481 kts
2026-05-05 02:05 33.17672 6.73485 34962 ft 481 kts
2026-05-05 02:05 33.24276 6.74396 34970 ft 481 kts
2026-05-05 02:06 33.30927 6.75316 34981 ft 481 kts
2026-05-05 02:06 33.37589 6.76238 34992 ft 482 kts
2026-05-05 02:07 33.44249 6.77162 34993 ft 482 kts
2026-05-05 02:07 33.50905 6.78004 34998 ft 479 kts 357°
2026-05-05 02:08 33.57510 6.77829 35000 ft 473 kts 351°
2026-05-05 02:08 33.64077 6.77357 34993 ft 473 kts 351°
2026-05-05 02:09 33.70652 6.76904 34981 ft 473 kts 351°
2026-05-05 02:09 33.77233 6.76487 34978 ft 474 kts 351°
2026-05-05 02:10 33.83813 6.76084 34974 ft 474 kts 351°
2026-05-05 02:10 33.90400 6.75681 34963 ft 474 kts 351°
2026-05-05 02:11 33.96977 6.75277 34970 ft 473 kts 351°
2026-05-05 02:11 34.03551 6.74871 34971 ft 473 kts 351°
2026-05-05 02:12 34.13402 6.74261 34971 ft 472 kts 351°
2026-05-05 02:13 34.19971 6.73853 34975 ft 472 kts 351°
2026-05-05 02:13 34.26535 6.73445 34979 ft 472 kts 351°
2026-05-05 02:14 34.33102 6.73036 34973 ft 473 kts 352°
2026-05-05 02:14 34.39676 6.72626 34978 ft 473 kts 352°
2026-05-05 02:15 34.46255 6.72216 34980 ft 474 kts 352°
2026-05-05 02:15 34.52838 6.71805 34984 ft 474 kts 352°
2026-05-05 02:16 34.59431 6.71392 34994 ft 475 kts 352°
2026-05-05 02:16 34.65990 6.70980 35005 ft 475 kts 352°
2026-05-05 02:17 34.72639 6.70563 35015 ft 476 kts 352°
2026-05-05 02:17 34.79249 6.70147 35023 ft 476 kts 352°
2026-05-05 02:18 34.85829 6.69739 35032 ft 476 kts 352°
2026-05-05 02:18 34.92445 6.69336 35051 ft 477 kts 352°
2026-05-05 02:19 34.99075 6.68931 35052 ft 477 kts 352°
2026-05-05 02:19 35.05701 6.68524 35061 ft 476 kts 352°
2026-05-05 02:20 35.12324 6.68116 35069 ft 476 kts 352°
2026-05-05 02:20 35.18935 6.67709 35072 ft 476 kts 352°
2026-05-05 02:21 35.25539 6.67302 35072 ft 475 kts 352°
2026-05-05 02:21 35.32136 6.66892 35068 ft 474 kts 352°
2026-05-05 02:22 35.38726 6.66481 35068 ft 474 kts 352°
2026-05-05 02:22 35.45311 6.66074 35064 ft 474 kts 352°
2026-05-05 02:23 35.51901 6.65665 35060 ft 474 kts 352°
2026-05-05 02:23 35.58443 6.65257 35070 ft 474 kts 352°
2026-05-05 02:24 35.65034 6.64846 35073 ft 474 kts 352°
2026-05-05 02:24 35.71626 6.64434 35076 ft 475 kts 351°
2026-05-05 02:25 35.78232 6.64020 35080 ft 475 kts 351°
2026-05-05 02:25 35.84840 6.63605 35060 ft 476 kts 351°
2026-05-05 02:26 35.91454 6.63190 35070 ft 476 kts 351°
2026-05-05 02:26 35.98073 6.62774 35060 ft 476 kts 351°
2026-05-05 02:27 36.04698 6.62356 35061 ft 477 kts 351°
2026-05-05 02:27 36.11327 6.61938 35072 ft 477 kts 351°
2026-05-05 02:28 36.16840 6.61590 35070 ft 477 kts 351°
2026-05-05 02:28 36.24594 6.61099 35077 ft 477 kts 351°
2026-05-05 02:29 36.30099 6.60690 35076 ft 475 kts 348°
2026-05-05 02:29 36.36614 6.59549 35083 ft 472 kts 345°
2026-05-05 02:30 36.43111 6.58283 35070 ft 473 kts 345°
2026-05-05 02:30 36.49619 6.57033 35058 ft 474 kts 345°
2026-05-05 02:31 36.56141 6.55808 35043 ft 474 kts 345°
2026-05-05 02:31 36.62646 6.54595 35036 ft 473 kts 345°
2026-05-05 02:32 36.69158 6.53381 35042 ft 473 kts 345°
2026-05-05 02:32 36.75669 6.52162 35026 ft 473 kts 345°
2026-05-05 02:33 36.82183 6.50940 35015 ft 473 kts 345°
2026-05-05 02:33 36.88678 6.49719 35023 ft 472 kts 345°
2026-05-05 02:34 36.95165 6.48498 35016 ft 471 kts 345°
2026-05-05 02:34 37.01600 6.47287 35014 ft 470 kts 345°
2026-05-05 02:35 37.08065 6.46065 35038 ft 469 kts 345°
2026-05-05 02:35 37.14517 6.44841 35030 ft 469 kts 345°
2026-05-05 02:36 37.20973 6.43617 35022 ft 469 kts 345°
2026-05-05 02:36 37.27423 6.42392 35020 ft 469 kts 345°
2026-05-05 02:37 37.33870 6.41166 35021 ft 469 kts 345°
2026-05-05 02:37 37.40319 6.39937 35020 ft 469 kts 344°
2026-05-05 02:38 37.46775 6.38704 35024 ft 469 kts 344°
2026-05-05 02:38 37.53231 6.37470 35023 ft 470 kts 344°
2026-05-05 02:39 37.59695 6.36231 35019 ft 470 kts 344°
2026-05-05 02:39 37.66159 6.34991 35020 ft 470 kts 344°
2026-05-05 02:40 37.72634 6.33746 35018 ft 471 kts 343°
2026-05-05 02:40 37.79104 6.32500 35018 ft 471 kts 343°
2026-05-05 02:41 37.85585 6.31250 35009 ft 471 kts 343°
2026-05-05 02:41 37.92066 6.29997 35013 ft 471 kts 343°
2026-05-05 02:42 37.98556 6.28741 35018 ft 472 kts 343°
2026-05-05 02:42 38.05005 6.27490 35015 ft 472 kts 343°
2026-05-05 02:43 38.11554 6.26217 35009 ft 473 kts 343°
2026-05-05 02:43 38.18030 6.24956 35012 ft 474 kts 343°
2026-05-05 02:44 38.24558 6.23683 35015 ft 475 kts 343°
2026-05-05 02:44 38.31108 6.22403 35009 ft 477 kts 343°
2026-05-05 02:45 38.37671 6.21119 35012 ft 477 kts 343°
2026-05-05 02:45 38.44241 6.19831 35008 ft 478 kts 343°
2026-05-05 02:46 38.50824 6.18538 35011 ft 479 kts 343°
2026-05-05 02:46 38.57409 6.17242 35014 ft 479 kts 343°
2026-05-05 02:47 38.64011 6.15940 35012 ft 480 kts 343°
2026-05-05 02:47 38.70613 6.14636 35014 ft 480 kts 343°
2026-05-05 02:48 38.77222 6.13328 35004 ft 481 kts 343°
2026-05-05 02:48 38.83833 6.12017 35005 ft 481 kts 343°
2026-05-05 02:49 38.90452 6.10702 35010 ft 481 kts 343°
2026-05-05 02:49 38.97075 6.09384 35015 ft 482 kts 343°
2026-05-05 02:50 39.03707 6.08103 35016 ft 483 kts 344°
2026-05-05 02:50 39.10384 6.06947 35018 ft 484 kts 344°
2026-05-05 02:51 39.17061 6.05808 35018 ft 484 kts 344°
2026-05-05 02:51 39.23742 6.04648 35022 ft 484 kts 344°
2026-05-05 02:52 39.30428 6.03474 35017 ft 485 kts 344°
2026-05-05 02:52 39.37104 6.02298 35006 ft 484 kts 344°
2026-05-05 02:53 39.43782 6.01119 35010 ft 484 kts 344°
2026-05-05 02:53 39.50453 5.99939 35010 ft 484 kts 344°
2026-05-05 02:54 39.57074 5.98767 35011 ft 483 kts 344°
2026-05-05 02:54 39.63724 5.97587 35008 ft 482 kts 344°
2026-05-05 02:55 39.70376 5.96404 35009 ft 482 kts 344°
2026-05-05 02:55 39.77015 5.95221 35006 ft 481 kts 344°
2026-05-05 02:56 39.83647 5.94037 35007 ft 481 kts 344°
2026-05-05 02:56 39.90270 5.92853 35008 ft 480 kts 344°
2026-05-05 02:57 39.96889 5.91667 34999 ft 480 kts 344°
2026-05-05 02:57 40.03500 5.90480 34998 ft 479 kts 344°
2026-05-05 02:58 40.10099 5.89292 34999 ft 479 kts 344°
2026-05-05 02:58 40.16695 5.88103 34996 ft 478 kts 344°
2026-05-05 02:59 40.23285 5.86913 34993 ft 478 kts 344°
2026-05-05 02:59 40.29868 5.85721 34986 ft 477 kts 344°
2026-05-05 03:00 40.36446 5.84528 34980 ft 477 kts 344°
2026-05-05 03:00 40.43026 5.83332 34986 ft 477 kts 344°
2026-05-05 03:01 40.49618 5.82209 34980 ft 478 kts 345°
2026-05-05 03:01 40.56236 5.81186 34987 ft 479 kts 345°
2026-05-05 03:02 40.62862 5.80163 34979 ft 479 kts 345°
2026-05-05 03:02 40.69485 5.79120 34981 ft 480 kts 345°
2026-05-05 03:03 40.76112 5.78066 34979 ft 480 kts 345°
2026-05-05 03:03 40.82753 5.77007 34981 ft 481 kts 345°
2026-05-05 03:04 40.89396 5.75947 34976 ft 481 kts 346°
2026-05-05 03:04 40.96043 5.74885 34970 ft 481 kts 346°
2026-05-05 03:05 41.02687 5.73821 34970 ft 481 kts 346°
2026-05-05 03:05 41.09321 5.72756 34967 ft 480 kts 346°
2026-05-05 03:06 41.15957 5.71688 34957 ft 480 kts 346°
2026-05-05 03:06 41.22542 5.70627 34965 ft 480 kts 346°
2026-05-05 03:07 41.29169 5.69556 34958 ft 480 kts 346°
2026-05-05 03:07 41.35797 5.68483 34956 ft 480 kts 346°
2026-05-05 03:08 41.42430 5.67408 34954 ft 480 kts 346°
2026-05-05 03:08 41.49073 5.66328 34956 ft 481 kts 346°
2026-05-05 03:09 41.55717 5.65246 34955 ft 481 kts 346°
2026-05-05 03:09 41.62372 5.64160 34951 ft 482 kts 346°
2026-05-05 03:10 41.69036 5.63070 34946 ft 482 kts 346°
2026-05-05 03:10 41.75704 5.61977 34945 ft 483 kts 346°
2026-05-05 03:11 41.82365 5.60826 34943 ft 482 kts 346°
2026-05-05 03:11 41.89006 5.59541 34938 ft 482 kts 345°
2026-05-05 03:12 41.95643 5.58242 34936 ft 482 kts 345°
2026-05-05 03:12 42.02295 5.56956 34934 ft 483 kts 346°
2026-05-05 03:13 42.08944 5.55678 34930 ft 483 kts 346°
2026-05-05 03:13 42.15595 5.54400 34926 ft 483 kts 346°
2026-05-05 03:14 42.22209 5.53125 34928 ft 483 kts 346°
2026-05-05 03:14 42.28874 5.51836 34923 ft 484 kts 346°
2026-05-05 03:15 42.35540 5.50545 34920 ft 484 kts 346°
2026-05-05 03:15 42.42210 5.49250 34918 ft 485 kts 346°
2026-05-05 03:16 42.47765 5.48170 34916 ft 485 kts 346°
2026-05-05 03:16 42.54442 5.46868 34911 ft 485 kts 346°
2026-05-05 03:17 42.61127 5.45563 34910 ft 485 kts 346°
2026-05-05 03:17 42.67817 5.44253 34905 ft 486 kts 346°
2026-05-05 03:18 42.74502 5.42942 34914 ft 486 kts 346°
2026-05-05 03:18 42.81198 5.41625 34908 ft 486 kts 347°
2026-05-05 03:19 42.91237 5.39646 34907 ft 486 kts 347°
2026-05-05 03:19 42.97934 5.38322 34908 ft 487 kts 347°
2026-05-05 03:20 43.04636 5.36994 34903 ft 487 kts 347°
2026-05-05 03:20 43.11346 5.35662 34905 ft 487 kts 347°
2026-05-05 03:21 43.18062 5.34325 34906 ft 488 kts 347°
2026-05-05 03:21 43.24768 5.32902 34910 ft 486 kts 344°
2026-05-05 03:22 43.31390 5.31001 34917 ft 486 kts 343°
2026-05-05 03:22 43.37990 5.28979 34917 ft 486 kts 343°
2026-05-05 03:23 43.44611 5.26973 34913 ft 487 kts 343°
2026-05-05 03:23 43.51239 5.24993 34916 ft 488 kts 343°
2026-05-05 03:24 43.57879 5.23018 34918 ft 488 kts 343°
2026-05-05 03:24 43.64481 5.21050 34912 ft 489 kts 343°
2026-05-05 03:25 43.71132 5.19061 34911 ft 489 kts 343°
2026-05-05 03:25 43.77786 5.17066 34916 ft 490 kts 343°
2026-05-05 03:26 43.84448 5.15063 34910 ft 490 kts 343°
2026-05-05 03:26 43.91112 5.13056 34918 ft 490 kts 343°
2026-05-05 03:27 43.97785 5.11041 34914 ft 491 kts 344°
2026-05-05 03:27 44.04465 5.09020 34912 ft 492 kts 344°
2026-05-05 03:28 44.11152 5.06991 34917 ft 492 kts 344°
2026-05-05 03:28 44.17848 5.04955 34909 ft 493 kts 344°
2026-05-05 03:29 44.24550 5.02912 34911 ft 493 kts 344°
2026-05-05 03:29 44.31265 5.00862 34917 ft 494 kts 344°
2026-05-05 03:30 44.37975 4.98808 34919 ft 494 kts 344°
2026-05-05 03:30 44.44704 4.96742 34916 ft 495 kts 344°
2026-05-05 03:31 44.51435 4.94672 34916 ft 496 kts 345°
2026-05-05 03:31 44.58177 4.92593 34921 ft 496 kts 345°
2026-05-05 03:32 44.64922 4.90508 34921 ft 497 kts 345°
2026-05-05 03:32 44.71634 4.88429 34927 ft 497 kts 345°
2026-05-05 03:33 44.78440 4.86315 34927 ft 498 kts 345°
2026-05-05 03:33 44.85166 4.84221 34923 ft 498 kts 345°
2026-05-05 03:34 44.91940 4.82107 34931 ft 499 kts 345°
2026-05-05 03:34 44.98728 4.79984 34931 ft 500 kts 345°
2026-05-05 03:35 45.05523 4.77853 34928 ft 500 kts 345°
2026-05-05 03:35 45.12322 4.75716 34926 ft 501 kts 345°
2026-05-05 03:36 45.19135 4.73570 34926 ft 502 kts 345°
2026-05-05 03:36 45.25955 4.71415 34921 ft 503 kts 345°
2026-05-05 03:37 45.32791 4.69250 34923 ft 503 kts 345°
2026-05-05 03:37 45.39630 4.67080 34920 ft 504 kts 345°
2026-05-05 03:38 45.46477 4.64901 34910 ft 505 kts 345°
2026-05-05 03:38 45.53336 4.62713 34901 ft 505 kts 345°
2026-05-05 03:39 45.60191 4.60520 34901 ft 505 kts 345°
2026-05-05 03:39 45.67054 4.58320 34896 ft 505 kts 345°
2026-05-05 03:40 45.73905 4.56118 34913 ft 505 kts 345°
2026-05-05 03:40 45.80755 4.53911 34915 ft 504 kts 345°
2026-05-05 03:41 45.87604 4.51698 34911 ft 504 kts 345°
2026-05-05 03:41 45.94442 4.49483 34921 ft 504 kts 345°
2026-05-05 03:42 46.01290 4.47260 34915 ft 504 kts 345°
2026-05-05 03:42 46.08137 4.45031 34909 ft 505 kts 345°
2026-05-05 03:43 46.14991 4.42794 34911 ft 504 kts 345°
2026-05-05 03:43 46.21831 4.40556 34909 ft 505 kts 345°
2026-05-05 03:44 46.28684 4.38339 34902 ft 505 kts 347°
2026-05-05 03:44 46.35639 4.36759 34895 ft 506 kts 350°
2026-05-05 03:45 46.42614 4.35383 34898 ft 506 kts 351°
2026-05-05 03:45 46.49587 4.33980 34894 ft 506 kts 350°
2026-05-05 03:46 46.56561 4.32530 34898 ft 506 kts 350°
2026-05-05 03:46 46.63539 4.31059 34898 ft 507 kts 350°
2026-05-05 03:47 46.70511 4.29586 34897 ft 507 kts 350°
2026-05-05 03:47 46.77497 4.28109 34899 ft 507 kts 350°
2026-05-05 03:48 46.84485 4.26629 34901 ft 507 kts 350°
2026-05-05 03:48 46.91423 4.25156 34901 ft 508 kts 350°
2026-05-05 03:49 46.98419 4.23666 34897 ft 508 kts 350°
2026-05-05 03:49 47.05412 4.22173 34899 ft 508 kts 350°
2026-05-05 03:50 47.12413 4.20675 34893 ft 508 kts 350°
2026-05-05 03:50 47.19413 4.19171 34899 ft 508 kts 350°
2026-05-05 03:51 47.26419 4.17664 34890 ft 509 kts 350°
2026-05-05 03:51 47.33426 4.16152 34896 ft 509 kts 350°
2026-05-05 03:52 47.40434 4.14635 34895 ft 509 kts 350°
2026-05-05 03:52 47.47452 4.13112 34885 ft 510 kts 350°
2026-05-05 03:53 47.54476 4.11584 34891 ft 510 kts 350°
2026-05-05 03:53 47.61528 4.10274 34890 ft 511 kts 352°
2026-05-05 03:54 47.68605 4.09143 34894 ft 511 kts 352°
2026-05-05 03:54 47.75678 4.07996 34893 ft 511 kts 352°
2026-05-05 03:55 47.82741 4.06809 34895 ft 511 kts 351°
2026-05-05 03:55 47.89796 4.05602 34895 ft 510 kts 351°
2026-05-05 03:56 47.96840 4.04393 34892 ft 509 kts 351°
2026-05-05 03:56 48.03869 4.03187 34893 ft 508 kts 351°
2026-05-05 03:57 48.10895 4.01979 34889 ft 507 kts 351°
2026-05-05 03:57 48.17901 4.00771 34896 ft 506 kts 351°
2026-05-05 03:58 48.24894 3.99562 34889 ft 505 kts 351°
2026-05-05 03:58 48.31872 3.98352 34896 ft 504 kts 351°
2026-05-05 03:59 48.38834 3.97142 34899 ft 503 kts 351°
2026-05-05 03:59 48.45788 3.95929 34897 ft 503 kts 351°
2026-05-05 04:00 48.52732 3.94715 34891 ft 502 kts 351°
2026-05-05 04:00 48.58490 3.93706 34895 ft 501 kts 351°
2026-05-05 04:01 48.66574 3.92284 34889 ft 500 kts 351°
2026-05-05 04:01 48.73432 3.91075 34892 ft 499 kts 351°
2026-05-05 04:02 48.79207 3.90055 34892 ft 498 kts 351°
2026-05-05 04:02 48.86095 3.88836 34891 ft 498 kts 351°
2026-05-05 04:03 48.92977 3.87612 34900 ft 498 kts 351°
2026-05-05 04:03 48.99852 3.86386 34911 ft 498 kts 351°
2026-05-05 04:04 49.06731 3.85157 34909 ft 498 kts 351°
2026-05-05 04:04 49.13611 3.83924 34906 ft 498 kts 351°
2026-05-05 04:05 49.20481 3.82690 34914 ft 497 kts 351°
2026-05-05 04:05 49.27315 3.81459 34907 ft 497 kts 350°
2026-05-05 04:06 49.34225 3.80210 34913 ft 497 kts 350°
2026-05-05 04:06 49.41041 3.78975 34908 ft 496 kts 350°
2026-05-05 04:07 49.47894 3.77730 34912 ft 496 kts 351°
2026-05-05 04:07 49.54773 3.76797 34906 ft 496 kts 353°
2026-05-05 04:08 49.61666 3.76083 34910 ft 496 kts 353°
2026-05-05 04:08 49.68545 3.75334 34909 ft 495 kts 353°
2026-05-05 04:09 49.75413 3.74535 34910 ft 495 kts 352°
2026-05-05 04:09 49.82287 3.73717 34909 ft 495 kts 352°
2026-05-05 04:10 49.89163 3.72898 34915 ft 495 kts 352°
2026-05-05 04:10 49.96033 3.72081 34911 ft 495 kts 352°
2026-05-05 04:11 50.02898 3.71263 34916 ft 495 kts 352°
2026-05-05 04:11 50.09763 3.70442 34915 ft 495 kts 352°
2026-05-05 04:12 50.16624 3.69620 34917 ft 494 kts 352°
2026-05-05 04:12 50.23472 3.68796 34919 ft 493 kts 352°
2026-05-05 04:13 50.30305 3.67972 34923 ft 492 kts 352°
2026-05-05 04:13 50.37140 3.67201 34919 ft 492 kts 354°
2026-05-05 04:14 50.43979 3.66765 34921 ft 492 kts 355°
2026-05-05 04:14 50.50735 3.66396 34912 ft 479 kts 354°
2026-05-05 04:15 50.57347 3.65982 34926 ft 474 kts 354°
2026-05-05 04:15 50.63883 3.65542 34940 ft 473 kts 354°
2026-05-05 04:16 50.70450 3.65099 34945 ft 472 kts 354°
2026-05-05 04:16 50.77015 3.64660 34944 ft 472 kts 354°
2026-05-05 04:17 50.83582 3.64220 34942 ft 472 kts 354°
2026-05-05 04:17 50.90147 3.63779 34942 ft 472 kts 354°
2026-05-05 04:18 50.96734 3.63933 34935 ft 474 kts 359°
2026-05-05 04:18 51.03324 3.64439 34946 ft 474 kts 359°
2026-05-05 04:19 51.09906 3.64910 34949 ft 473 kts 359°
2026-05-05 04:19 51.16484 3.65338 34947 ft 473 kts 359°
2026-05-05 04:20 51.23048 3.65763 34937 ft 472 kts 359°
2026-05-05 04:20 51.29585 3.65787 34954 ft 469 kts 355°
2026-05-05 04:21 51.36102 3.65477 34959 ft 468 kts 355°
2026-05-05 04:21 51.42606 3.65208 34954 ft 467 kts 355°
2026-05-05 04:22 51.49108 3.64997 34959 ft 467 kts 355°
2026-05-05 04:22 51.55565 3.64799 34951 ft 467 kts 355°
2026-05-05 04:23 51.62060 3.64595 34949 ft 467 kts 355°
2026-05-05 04:23 51.68535 3.64860 34938 ft 470 kts 10°
2026-05-05 04:24 51.71597 3.66744 34953 ft 476 kts 29°
2026-05-05 04:24 51.74232 3.69990 34957 ft 479 kts 46°
2026-05-05 04:24 51.76236 3.74260 34963 ft 478 kts 58°
2026-05-05 04:25 51.77992 3.78840 34948 ft 481 kts 59°
2026-05-05 04:25 51.80457 3.85393 34958 ft 484 kts 59°
2026-05-05 04:26 51.84019 3.94669 34957 ft 487 kts 58°
2026-05-05 04:26 51.87651 4.03953 34963 ft 489 kts 58°
2026-05-05 04:27 51.91255 4.13070 34939 ft 467 kts 53°
2026-05-05 04:27 51.93425 4.16828 34964 ft 448 kts 40°
2026-05-05 04:27 51.95741 4.20133 34959 ft 442 kts 39°
2026-05-05 04:28 52.00363 4.26617 34960 ft 438 kts 40°
2026-05-05 04:28 52.04825 4.33025 34966 ft 437 kts 40°
2026-05-05 04:29 52.09346 4.39640 34949 ft 437 kts 41°
2026-05-05 04:29 52.13860 4.46289 34954 ft 438 kts 41°
2026-05-05 04:30 52.18389 4.52976 34972 ft 440 kts 41°
2026-05-05 04:30 52.22927 4.59691 34972 ft 441 kts 41°
2026-05-05 04:31 52.27481 4.66293 34948 ft 439 kts 32°
2026-05-05 04:31 52.30183 4.68473 34968 ft 428 kts 12°
2026-05-05 04:31 52.33052 4.69160 34951 ft 408 kts 354°
2026-05-05 04:31 52.35791 4.68525 34966 ft 392 kts 339°
2026-05-05 04:32 52.38322 4.67014 34967 ft 384 kts 328°
2026-05-05 04:32 52.40504 4.64639 34958 ft 372 kts 313°
2026-05-05 04:32 52.42404 4.61766 34974 ft 374 kts 314°
2026-05-05 04:32 52.44622 4.59436 34979 ft 387 kts 334°
2026-05-05 04:33 52.47282 4.58478 34956 ft 401 kts 357°
2026-05-05 04:33 52.50035 4.59368 34974 ft 411 kts 22°
2026-05-05 04:33 52.52386 4.62049 34965 ft 417 kts 48°
2026-05-05 04:33 52.53906 4.66062 34966 ft 417 kts 73°
2026-05-05 04:34 52.54336 4.70717 34967 ft 412 kts 98°
2026-05-05 04:34 52.53609 4.75178 34966 ft 401 kts 124°
2026-05-05 04:34 52.51891 4.78643 34964 ft 387 kts 149°
2026-05-05 04:34 52.49538 4.80515 34967 ft 371 kts 175°
2026-05-05 04:35 52.47026 4.80507 34968 ft 357 kts 198°
2026-05-05 04:35 52.42380 4.77626 34959 ft 359 kts 204°
2026-05-05 04:36 52.37881 4.74262 34960 ft 357 kts 204°
2026-05-05 04:36 52.33000 4.72537 34979 ft 363 kts 190°
2026-05-05 04:36 52.30548 4.71929 34951 ft 360 kts 205°
2026-05-05 04:37 52.28449 4.69770 34981 ft 361 kts 229°
2026-05-05 04:37 52.27167 4.66237 34985 ft 370 kts 253°
2026-05-05 04:37 52.26968 4.62004 34979 ft 386 kts 276°
2026-05-05 04:37 52.27555 4.57641 34972 ft 400 kts 282°
2026-05-05 04:38 52.28354 4.53214 34977 ft 413 kts 285°
2026-05-05 04:38 52.29505 4.48835 34958 ft 428 kts 296°
2026-05-05 04:38 52.31355 4.44967 34968 ft 441 kts 314°
2026-05-05 04:38 52.33973 4.42257 34968 ft 455 kts 335°
2026-05-05 04:39 52.37110 4.41213 34974 ft 469 kts 356°
2026-05-05 04:39 52.40368 4.41957 34989 ft 478 kts 12°
2026-05-05 04:39 52.43584 4.43072 34948 ft 468 kts 358°
2026-05-05 04:39 52.46754 4.42418 34974 ft 456 kts 336°
2026-05-05 04:40 52.49480 4.39967 34975 ft 444 kts 314°
2026-05-05 04:40 52.51391 4.36124 34984 ft 432 kts 292°
2026-05-05 04:40 52.52240 4.31470 34979 ft 424 kts 271°
2026-05-05 04:41 52.52272 4.21873 34977 ft 425 kts 276°
2026-05-05 04:41 52.54095 4.12542 34992 ft 435 kts 291°
2026-05-05 04:42 52.56788 4.03602 34989 ft 438 kts 294°
2026-05-05 04:42 52.59593 3.94711 34981 ft 437 kts 293°
2026-05-05 04:43 52.62319 3.85812 34988 ft 435 kts 293°
2026-05-05 04:43 52.65041 3.76937 34991 ft 433 kts 293°
2026-05-05 04:44 52.67753 3.68088 34990 ft 432 kts 293°
2026-05-05 04:44 52.70458 3.59229 34996 ft 433 kts 293°
2026-05-05 04:45 52.73184 3.50367 34998 ft 434 kts 294°
2026-05-05 04:45 52.75948 3.41485 34992 ft 436 kts 294°
2026-05-05 04:46 52.78674 3.32600 34996 ft 437 kts 293°
2026-05-05 04:46 52.81461 3.23640 35001 ft 439 kts 294°
2026-05-05 04:47 52.84232 3.14645 35001 ft 440 kts 294°
2026-05-05 04:47 52.87052 3.05644 34997 ft 441 kts 294°
2026-05-05 04:48 52.89828 2.96586 35003 ft 441 kts 294°
2026-05-05 04:48 52.92641 2.87546 35000 ft 441 kts 294°
2026-05-05 04:49 52.95434 2.78499 35008 ft 441 kts 294°
2026-05-05 04:49 52.97796 2.70997 35008 ft 441 kts 295°
2026-05-05 04:50 53.01145 2.60538 35007 ft 441 kts 295°
2026-05-05 04:50 53.03584 2.53013 35010 ft 442 kts 296°
2026-05-05 04:51 53.06498 2.44021 35011 ft 442 kts 295°
2026-05-05 04:51 53.09904 2.33562 35005 ft 443 kts 296°
2026-05-05 04:52 53.12339 2.25995 35009 ft 443 kts 296°
2026-05-05 04:52 53.15247 2.16947 35016 ft 443 kts 295°
2026-05-05 04:53 53.18145 2.07876 35015 ft 444 kts 296°
2026-05-05 04:53 53.21078 1.98813 35009 ft 444 kts 297°
2026-05-05 04:54 53.24075 1.89782 35014 ft 445 kts 296°
2026-05-05 04:54 53.27035 1.80710 35011 ft 445 kts 297°
2026-05-05 04:55 53.30001 1.71700 35015 ft 445 kts 296°
2026-05-05 04:55 53.32988 1.62559 35012 ft 445 kts 297°
2026-05-05 04:56 53.35940 1.53536 35012 ft 445 kts 296°
2026-05-05 04:56 53.38823 1.44383 35010 ft 444 kts 297°
2026-05-05 04:57 53.41806 1.35322 35010 ft 444 kts 297°
2026-05-05 04:57 53.44718 1.26186 35008 ft 444 kts 296°
2026-05-05 04:58 53.47523 1.16957 35005 ft 443 kts 294°
2026-05-05 04:58 53.50215 1.07660 35008 ft 443 kts 294°
2026-05-05 04:59 53.52860 0.98333 35005 ft 443 kts 295°
2026-05-05 04:59 53.55759 0.89184 35001 ft 443 kts 297°
2026-05-05 05:00 53.58672 0.80057 35009 ft 442 kts 295°
2026-05-05 05:00 53.61479 0.70842 35001 ft 443 kts 298°
2026-05-05 05:01 53.64597 0.61899 35007 ft 443 kts 298°
2026-05-05 05:01 53.67774 0.52994 35010 ft 444 kts 300°
2026-05-05 05:02 53.70846 0.43971 35005 ft 444 kts 297°
2026-05-05 05:02 53.73840 0.34846 35006 ft 444 kts 298°
2026-05-05 05:03 53.76915 0.25782 35011 ft 445 kts 298°
2026-05-05 05:03 53.80051 0.16758 35005 ft 446 kts 301°
2026-05-05 05:04 53.83324 0.07824 35009 ft 447 kts 300°
2026-05-05 05:04 53.86590 -0.01136 34919 ft 446 kts 302°
2026-05-05 05:05 53.90327 -0.09490 34995 ft 445 kts 306°
2026-05-05 05:05 53.93787 -0.18177 34999 ft 444 kts 300°
2026-05-05 05:06 53.96755 -0.27358 35003 ft 443 kts 296°
2026-05-05 05:06 53.99346 -0.36851 35002 ft 442 kts 294°
2026-05-05 05:07 54.01923 -0.46319 35002 ft 441 kts 295°
2026-05-05 05:07 54.04535 -0.55745 35007 ft 440 kts 294°
2026-05-05 05:08 54.07040 -0.65239 35007 ft 439 kts 294°
2026-05-05 05:08 54.09573 -0.74702 35012 ft 439 kts 294°
2026-05-05 05:09 54.12038 -0.84199 35017 ft 438 kts 293°
2026-05-05 05:09 54.14568 -0.93656 35019 ft 438 kts 294°
2026-05-05 05:10 54.16938 -1.03159 35018 ft 438 kts 293°
2026-05-05 05:10 54.19410 -1.12658 35024 ft 438 kts 293°
2026-05-05 05:11 54.21797 -1.22211 35023 ft 437 kts 292°
2026-05-05 05:11 54.24155 -1.31784 35020 ft 437 kts 291°
2026-05-05 05:12 54.26419 -1.41422 35026 ft 436 kts 291°
2026-05-05 05:12 54.28742 -1.50998 35018 ft 436 kts 291°
2026-05-05 05:13 54.31010 -1.60605 35023 ft 435 kts 292°
2026-05-05 05:13 54.33342 -1.70154 35022 ft 434 kts 292°
2026-05-05 05:14 54.35554 -1.79781 35025 ft 434 kts 290°
2026-05-05 05:14 54.37833 -1.89346 35027 ft 434 kts 291°
2026-05-05 05:15 54.40044 -1.98963 35019 ft 433 kts 290°
2026-05-05 05:15 54.42271 -2.08571 35028 ft 433 kts 292°
2026-05-05 05:16 54.44445 -2.18200 35042 ft 432 kts 289°
2026-05-05 05:16 54.46583 -2.27852 35037 ft 432 kts 290°
2026-05-05 05:17 54.48705 -2.37505 35033 ft 432 kts 290°
2026-05-05 05:17 54.50903 -2.47104 35035 ft 431 kts 291°
2026-05-05 05:18 54.53184 -2.56633 35032 ft 430 kts 290°
2026-05-05 05:18 54.55177 -2.66340 35046 ft 430 kts 288°
2026-05-05 05:19 54.57271 -2.75995 35040 ft 430 kts 290°
2026-05-05 05:19 54.59522 -2.85477 35049 ft 430 kts 291°
2026-05-05 05:20 54.61730 -2.95144 35039 ft 430 kts 289°
2026-05-05 05:20 54.63821 -3.04803 35036 ft 430 kts 290°
2026-05-05 05:21 54.65992 -3.14421 35035 ft 429 kts 289°
2026-05-05 05:21 54.68000 -3.24059 35037 ft 429 kts 289°
2026-05-05 05:22 54.70128 -3.33691 35038 ft 429 kts 291°
2026-05-05 05:22 54.72244 -3.43313 35035 ft 428 kts 288°
2026-05-05 05:23 54.74202 -3.53016 35030 ft 427 kts 289°
2026-05-05 05:23 54.76269 -3.62657 35035 ft 427 kts 288°
2026-05-05 05:24 54.78326 -3.72293 35034 ft 427 kts 291°
2026-05-05 05:24 54.80649 -3.81769 35028 ft 427 kts 291°
2026-05-05 05:25 54.82745 -3.91385 35036 ft 426 kts 289°
2026-05-05 05:25 54.84894 -4.00987 35033 ft 427 kts 292°
2026-05-05 05:26 54.87161 -4.10524 35036 ft 427 kts 291°
2026-05-05 05:26 54.89540 -4.19990 35038 ft 428 kts 293°
2026-05-05 05:27 54.91816 -4.29552 35034 ft 428 kts 291°
2026-05-05 05:27 54.95376 -4.43818 35040 ft 429 kts 294°
2026-05-05 05:28 54.97781 -4.53308 35042 ft 428 kts 291°
2026-05-05 05:28 55.00141 -4.62847 35038 ft 429 kts 293°
2026-05-05 05:29 55.02657 -4.72263 35042 ft 428 kts 292°
2026-05-05 05:29 55.05017 -4.81806 35043 ft 429 kts 292°
2026-05-05 05:30 55.07379 -4.91368 35042 ft 429 kts 290°
2026-05-05 05:30 55.09460 -5.01126 35052 ft 429 kts 289°
2026-05-05 05:31 55.11700 -5.10736 35042 ft 430 kts 292°
2026-05-05 05:31 55.14024 -5.20442 35044 ft 430 kts 291°
2026-05-05 05:32 55.16237 -5.30074 35048 ft 430 kts 290°
2026-05-05 05:32 55.18411 -5.39812 35047 ft 430 kts 290°
2026-05-05 05:33 55.20556 -5.49571 35053 ft 429 kts 290°
2026-05-05 05:33 55.22771 -5.59280 35056 ft 429 kts 292°
2026-05-05 05:34 55.25059 -5.68940 35061 ft 429 kts 290°
2026-05-05 05:34 55.27070 -5.78784 35066 ft 428 kts 287°
2026-05-05 05:35 55.28966 -5.88688 35064 ft 429 kts 288°
2026-05-05 05:35 55.30852 -5.98622 35067 ft 429 kts 288°
2026-05-05 05:36 55.32483 -6.06843 35069 ft 430 kts 289°
2026-05-05 05:36 55.34548 -6.16697 35069 ft 430 kts 289°
2026-05-05 05:37 55.36679 -6.26511 35057 ft 430 kts 291°
2026-05-05 05:37 55.38932 -6.36257 35075 ft 430 kts 292°
2026-05-05 05:38 55.41401 -6.45846 35065 ft 430 kts 293°
2026-05-05 05:38 55.43883 -6.55435 35084 ft 430 kts 292°
2026-05-05 05:39 55.46178 -6.65175 35085 ft 431 kts 290°
2026-05-05 05:39 55.48386 -6.74993 35073 ft 431 kts 292°
2026-05-05 05:40 55.50695 -6.84740 35077 ft 431 kts 291°
2026-05-05 05:40 55.53091 -6.94436 35095 ft 431 kts 293°
2026-05-05 05:41 55.55595 -7.04066 35084 ft 432 kts 294°
2026-05-05 05:41 55.58088 -7.13719 35084 ft 432 kts 294°
2026-05-05 05:42 55.60581 -7.23382 35098 ft 432 kts 293°
2026-05-05 05:42 55.63063 -7.33074 35087 ft 433 kts 293°
2026-05-05 05:43 55.65529 -7.42798 35090 ft 433 kts 293°
2026-05-05 05:43 55.67987 -7.52524 35090 ft 433 kts 293°
2026-05-05 05:44 55.70431 -7.62285 35098 ft 433 kts 293°
2026-05-05 05:44 55.72853 -7.72072 35092 ft 433 kts 293°
2026-05-05 05:45 55.75239 -7.81805 35097 ft 433 kts 293°
2026-05-05 05:45 55.77626 -7.91622 35099 ft 433 kts 292°
2026-05-05 05:46 55.79984 -8.01440 35100 ft 432 kts 292°